Regional Weather Roundup
Issued by NWS Sterling, VA

Home | Current Version | Previous Version | Text Only | Print | Product List | Glossary Off
Versions: 1 2 3 4 5 6 7 8 9 10 11 12 13 14 15 16 17 18 19 20 21 22 23 24 25 26 27 28 29 30 31 32 33 34 35 36 37 38 39 40 41 42 43 44 45 46 47 48 49 50

000
ASUS41 KLWX 022010
RWRLWX

REGIONAL WEATHER ROUNDUP
NATIONAL WEATHER SERVICE BALTIMORE MD/WASHINGTON DC
400 PM EDT TUE SEP 02 2014

Note: "FAIR" indicates few or no clouds below 12,000 feet
with no significant weather and/or obstructions to visibility.
 TC=TEMPERATURE CELSIUS

 * =Non NWS site. Station does not report precipitation (e.g. rain,
    snow, etc.), thunder, or fog.

DCZ001-MDZ009-015-VAZ040>042-051-053>054-022100-
WASHINGTON METRO

CITY           SKY/WX    TMP DP  RH WIND       PRES   REMARKS
WASHINGTON NAT PTSUNNY   95  69  42 S12G18    29.89F HX 100
DULLES         PTSUNNY   89  70  53 S10G17    29.91S HX  94
ANDREWS AFB    SUNNY     92  69  47 SW13      29.90F HX  97
QUANTICO       MOSUNNY   89  75  63 S10       29.90F HX  99
COLLEGE PARK*  SUNNY     95  68  41 S6        29.88F HX  99
LEESBURG*      CLOUDY    84  72  65 W5G18     29.92R THUNDER
MANASSAS*      MOSUNNY   91  72  52 S8        29.90F HX  98
GAITHERSBURG*  MOSUNNY   90  70  51 SW7       29.94F HX  95

$$

MDZ006>007-011-014-022100-
BALTIMORE METRO

CITY           SKY/WX    TMP DP  RH WIND       PRES   REMARKS
BWI AIRPORT    PTSUNNY   90  68  48 S7        29.88F HX  94
MD SCIENCE CTR   N/A     93  68  43 MISG      29.87F HX  97
MARTIN STATE   MOSUNNY   93  72  49 S9        29.84F HX 100
ANNAPOLIS      SUNNY     89  71  55 SE12      29.88F HX  95
FORT MEADE*    MOSUNNY   86  72  62 S5        29.91F HX  92

$$

MDZ012-015-019>023-022100-
MARYLAND EASTERN SHORE

CITY           SKY/WX    TMP DP  RH WIND       PRES   REMARKS
OCEAN CITY     SUNNY     89  75  63 SW10      29.91F HX  99
SALISBURY      MOSUNNY   95  67  39 SW10      29.90F HX  99
BAY BRIDGE AP*   N/A     90  66  45 S8        29.89F HX  92
CAMBRIDGE*     MOSUNNY   91  68  46 SW5       29.89F HX  95
EASTON*        MOSUNNY   95  68  41 W9        29.93F HX  99

$$

MDZ017>025-022100-
SOUTHERN MARYLAND

CITY           SKY/WX    TMP DP  RH WIND       PRES   REMARKS
PATUXENT RIVER MOSUNNY   92  70  48 SE9       29.89F HX  97
ST INIGOES     SUNNY     91  73  55 S6        29.89F HX  99
LEONARDTOWN*   SUNNY     95  63  34 W7        29.91F HX  96

$$

MDZ003>005-022100-
NORTH CENTRAL MARYLAND

CITY           SKY/WX    TMP DP  RH WIND       PRES   REMARKS
FREDERICK*     PTSUNNY   84  72  65 MISG      29.94R
HAGERSTOWN APT PTSUNNY   88  70  55 S15G22    29.88F HX  93
WESTMINSTER*   MOSUNNY   91  72  52 S9        29.91F HX  98

$$

MDZ501>502-022100-
WESTERN MARYLAND

CITY           SKY/WX    TMP DP  RH WIND       PRES   REMARKS
OAKLAND*       PTSUNNY   63 N/A N/A S8G16     30.03F
CUMBERLAND*    PTSUNNY   77  63  61 SW6G41    29.95R

$$

VAZ025>031-022100-
SHENANDOAH VALLEY

CITY           SKY/WX    TMP DP  RH WIND       PRES   REMARKS
WINCHESTER*    MOSUNNY   91  63  38 SW10G18   29.89F HX  92
STAUNTON*      MOSUNNY   84  73  68 CALM      29.97F HX  91

$$

WVZ021-048>050-054>055-022100-
EASTERN WEST VIRGINIA PANHANDLE

CITY           SKY/WX    TMP DP  RH WIND       PRES   REMARKS
MARTINSBURG    MOSUNNY   86  73  65 S8        29.89F HX  93
PETERSBURG*    NOT AVBL

$$

VAZ036>039-050-022100-
CENTRAL FOOTHILLS

CITY           SKY/WX    TMP DP  RH WIND       PRES   REMARKS
CHARLOTTESVILL SUNNY     92  66  42 SW8       29.92F HX  94
ORANGE*        MOSUNNY   93  68  43 S8        29.93F HX  97

$$

VAZ055>057-022100-
NORTH AND CENTRAL PIEDMONT

CITY           SKY/WX    TMP DP  RH WIND       PRES   REMARKS
FREDERICKSBRG* MOSUNNY   95  69  41 SW12      29.90F HX 100
STAFFORD*      MOSUNNY   91  71  51 SW8       29.94F HX  96

$$

NCZ024-NYZ072-PAZ021-071-VAZ022-071-022100-
OTHER REGIONAL OBSERVATIONS

CITY           SKY/WX    TMP DP  RH WIND       PRES   REMARKS
NEW YORK CITY  PTSUNNY   89  66  46 W8        29.85F HX  91
PHILADELPHIA   PTSUNNY   90  69  50 W13       29.87F HX  94
PITTSBURGH     CLOUDY    79  67  66 W10       29.88F
ROANOKE        MOSUNNY   91  63  39 SW13      29.99F HX  92
RICHMOND       MOSUNNY   97  66  36 SW12      29.91F HX 100
RALEIGH        MOSUNNY   94  68  42 W8        29.98F HX  98

$$

ANZ530>537-022100-
MARINE OBSERVATIONS

STATION/POSITION TIME  TEMP    WIND        PRES
                       AIR SEA DIR/SP/G
                 (UTC) (F)     (DEG/KT/KT) (MB)
THOMAS PT LIGHT  2000   85 81  160/ 11/ 12 1012.9F
BALT KEY BRIDGE  2000          180/  9/ 11 1011.5F
COVE POINT       2000   83     160/ 10/ 11 1012.5S
LEWISETTA        2000   85 83  120/  8/  9 1012.3F
SOLOMONS ISLAND  2000      81                N/A
PINEY POINT      2000          150/  8/  9   N/A

$$




USA.gov is the U.S. government's official web portal to all federal, state and local government web resources and services.